Location: *
(37.9500°N, 27.3666°E)
Time: 22:20:24
(UTC+00:00)

Cosmos 614 Rocket - Pass Details

Date: 29 May 2022
Orbit: 732 x 764 km, 74.1° (Epoch: 01 July)

Event Time Altitude Azimuth Distance (km) Brightness Sun altitude
Rises 23:06:44 0° 352° (N) 3,219 8.2 -28.7°
Reaches altitude 10° 23:09:22 10° 3° (N) 2,294 7.4 -28.6°
Maximum altitude 23:13:57 31° 64° (ENE) 1,326 5.5 -28.3°
Enters shadow 23:15:59 23° 103° (ESE) 1,564 5.6 -28.2°
